Погода в Партизанске

Россия / Приморский край     43°07′11″N   133°07′23″E
темп.,
°C
ветер,
м/с
пор.,
м/с
влажн.,
%
обл.,
%
осадки,
мм/ч
давл.,
гПа
погр.,
м
14 июня, пн
пн1401:00+16ссв229447 0.0 100826
04:00+16сз119426 0.0 100811
07:00+17в1190100 0.0 100964
10:00+21вюв126897 0.1 1008437
13:00+22ю336339 0.7 1009722
16:00+23ю3263100 0.9 1008758
19:00+17ю1291100 0.3 100946
22:00+12ююв12949 0.3 101090
15 июня, вт
вт1501:00+10ююв0198100 0.0 101112
04:00+9всв11988 0.0 101012
07:00+11ю119294 0.0 1011104
10:00+18ююв2261100 0.0 1010671
13:00+21ююв325085 0.0 1010999
16:00+20ю3352100 0.0 1010834
19:00+16ююз2365100 0.0 1010518
22:00+9ююз1196100 0.0 101212
16 июня, ср
ср1601:00+8юв0097100 0.0 101210
04:00+8сз0097100 0.0 101110
07:00+10вюв009073 0.0 101290
10:00+18ю216196 0.0 1011600
13:00+22ююз32510 0.0 1010936
16:00+21юз33523 0.0 1010764
19:00+16юз33680 0.0 1010350
22:00+10зюз11973 0.0 101220
17 июня, чт
чт1701:00+9зсз00960 0.0 101110
04:00+8всв01972 0.0 101011
07:00+11ссз11871 0.0 100960
10:00+19ю22545 0.0 1008594
13:00+22ююз3445100 0.0 10071084
16:00+20ююз3352100 0.0 1006859
19:00+17ююз2372100 0.0 1006357
22:00+12юв1197100 0.0 100720
18 июня, пт
пт1801:00+11вюв1199100 0.0 100528
04:00+13в1396100 0.0 1004145
07:00+14в1497100 0.2 1003216
10:00+16юв3994100 0.6 1003778
13:00+16юв3994100 1.7 1002692
16:00+15юв2798100 3.0 1000528
19:00+15всв1398100 0.4 999133
22:00+14вюв1198100 0.8 99940